This demonstration page uses our WeatherBlox Daily Observations layout. Learn more.

Hourly Observations for December 13, 2019

Temp ( °F °C ) Dew Point ( °F °C ) Humidity (%) Winds ( mph kmh ) Pressure ( in mb ) Visibility ( mi km ) Precip ( " mm )
12:54 am 00:54 Cloudy with Mist and Fog 25 -3.9 23 -5 92 92 E 6 9 30.02 1017 5 8.0467 0 0
1:22 am 01:22 Partly Cloudy with Mist and Fog 23 -5 20 -6.7 88 88 ESE 5 7 30.06 1018 6 9.65604 0 0
1:54 am 01:54 Clear with Mist and Fog 23 -5 20 -6.7 88 88 E 5 7 30 1016 6 9.65604 0 0
2:54 am 02:54 Clear with Mist and Fog 23 -5 20 -6.7 88 88 Calm 29.98 1015 6 9.65604 0 0
3:54 am 03:54 Cloudy with Mist and Fog 24 -4.4 20 -6.7 84 84 ESE 6 9 29.96 1014 6 9.65604 0 0
4:54 am 04:54 Cloudy 25 -3.9 21 -6.1 85 85 SE 5 7 29.93 1014 7 11.26538 0 0
5:54 am 05:54 Cloudy 25 -3.9 21 -6.1 85 85 Calm 29.93 1014 7 11.26538 0 0
6:54 am 06:54 Cloudy with Mist and Fog 25 -3.9 22 -5.6 88 88 N 9 15 29.95 1014 6 9.65604 0 0
7:54 am 07:54 Cloudy with Mist and Fog 26 -3.3 22 -5.6 84 84 ESE 5 7 29.93 1014 5 8.0467 0 0
8:54 am 08:54 Cloudy with Haze 28 -2.2 23 -5 81 81 NNW 5 7 29.93 1014 5 8.0467 0 0
9:54 am 09:54 Hazy 31 -0.6 24 -4.4 76 76 Calm 29.92 1013 6 9.65604 0 0
10:54 am 10:54 Hazy 34 1.1 26 -3.3 73 73 SSE 7 11 29.9 1012 6 9.65604 0 0
11:54 am 11:54 Sunny 37 2.8 27 -2.8 67 67 N 3 6 29.88 1012 7 11.26538 0 0
12:54 pm 12:54 Sunny 41 5 29 -1.7 62 62 NW 5 7 29.85 1011 8 12.87472 0 0
1:54 pm 13:54 Sunny 43 6.1 29 -1.7 58 58 VRB 3 6 29.83 1010 8 12.87472 0 0
2:54 pm 14:54 Sunny 42 5.6 29 -1.7 60 60 N 6 9 29.82 1010 8 12.87472 0 0
3:54 pm 15:54 Sunny 41 5 29 -1.7 62 62 N 8 13 29.84 1011 8 12.87472 0 0
4:54 pm 16:54 Sunny 38 3.3 29 -1.7 70 70 N 9 15 29.85 1011 8 12.87472 0 0
5:54 pm 17:54 Clear 38 3.3 30 -1.1 73 73 NNW 6 9 29.89 1012 8 12.87472 0 0
6:54 pm 18:54 Cloudy 37 2.8 29 -1.7 73 73 NNW 6 9 29.91 1013 8 12.87472 0 0
7:54 pm 19:54 Partly Cloudy 32 0 27 -2.8 82 82 N 5 7 29.92 1013 7 11.26538 0 0
8:54 pm 20:54 Hazy 30 -1.1 25 -3.9 82 82 N 7 11 29.93 1014 6 9.65604 0 0
9:32 pm 21:32 Mostly Cloudy 34 1.1 28 -2.2 79 79 N 18 30 29.96 1015 10 16.0934 0 0
9:54 pm 21:54 Cloudy 33 0.6 28 -2.2 82 82 N 17 28 29.95 1014 10 16.0934 0 0
10:54 pm 22:54 Cloudy 32 0 26 -3.3 79 79 N 18 30 29.96 1015 10 16.0934 0 0
11:54 pm 23:54 Cloudy 32 0 26 -3.3 79 79 N 14 22 29.98 1015 10 16.0934 0 0

Powered by AerisWeather